Time,TemperatureF,DewpointF,PressureIn,WindDirection,WindDirectionDegrees,WindSpeedMPH,WindSpeedGustMPH,Humidity,HourlyPrecipIn,Conditions,Clouds,dailyrainin,SoftwareType,DateUTC
2013-09-29 00:02:00,-999.0,-99.9,29.99,South,179,0.0,2.0,-999,-99.99,,,-99.99,,2013-09-29 04:02:00,
2013-09-29 00:14:00,61.0,54.0,29.99,South,179,0.0,2.0,78,0.00,,,0.00,,2013-09-29 04:14:00,
2013-09-29 00:24:00,61.0,54.0,29.99,South,179,0.0,2.0,79,0.00,,,0.00,,2013-09-29 04:24:00,
2013-09-29 00:54:00,62.0,55.0,29.99,SSW,211,2.0,4.0,79,0.00,,,0.00,,2013-09-29 04:54:00,
2013-09-29 01:14:00,62.0,55.0,29.99,SSW,207,2.0,5.0,78,0.00,,,0.00,,2013-09-29 05:14:00,
2013-09-29 01:22:00,62.0,55.0,29.99,SSW,202,1.0,4.0,78,0.00,,,0.00,,2013-09-29 05:22:00,
2013-09-29 01:53:00,62.0,55.0,29.99,SSW,205,0.0,3.0,79,0.00,,,0.00,,2013-09-29 05:53:00,
2013-09-29 02:13:00,62.0,56.0,29.99,SSW,209,0.0,3.0,80,0.00,,,0.00,,2013-09-29 06:13:00,
2013-09-29 02:22:00,61.0,55.0,29.99,SSW,209,0.0,1.0,82,0.00,,,0.00,,2013-09-29 06:22:00,
2013-09-29 02:42:00,61.0,56.0,29.99,SSW,209,0.0,1.0,84,0.00,,,0.00,,2013-09-29 06:42:00,
2013-09-29 02:52:00,60.0,55.0,29.98,SSW,209,0.0,2.0,84,0.00,,,0.00,,2013-09-29 06:52:00,
2013-09-29 03:11:00,60.0,55.0,29.98,SSW,209,0.0,1.0,85,0.00,,,0.00,,2013-09-29 07:11:00,
2013-09-29 03:22:00,60.0,56.0,29.98,SSW,211,1.0,3.0,87,0.00,,,0.00,,2013-09-29 07:22:00,
2013-09-29 03:43:00,61.0,56.0,29.97,SSW,203,3.0,5.0,84,0.00,,,0.00,,2013-09-29 07:43:00,
2013-09-29 03:52:00,60.0,55.0,29.97,SSW,212,2.0,5.0,84,0.00,,,0.00,,2013-09-29 07:52:00,
2013-09-29 04:12:00,60.0,56.0,29.97,SW,219,1.0,3.0,86,0.00,,,0.00,,2013-09-29 08:12:00,
2013-09-29 04:22:00,59.0,55.0,29.97,SW,230,0.0,3.0,86,0.00,,,0.00,,2013-09-29 08:22:00,
2013-09-29 04:42:00,59.0,55.0,29.97,SW,221,0.0,3.0,87,0.00,,,0.00,,2013-09-29 08:42:00,
2013-09-29 04:52:00,59.0,55.0,29.97,SW,221,0.0,3.0,87,0.00,,,0.00,,2013-09-29 08:52:00,
2013-09-29 05:11:00,58.0,54.0,29.96,SW,214,0.0,1.0,88,0.00,,,0.00,,2013-09-29 09:11:00,
2013-09-29 05:23:00,59.0,55.0,29.96,SSW,205,0.0,3.0,88,0.00,,,0.00,,2013-09-29 09:23:00,
2013-09-29 05:43:00,58.0,54.0,29.95,SSW,205,0.0,0.0,88,0.00,,,0.00,,2013-09-29 09:43:00,
2013-09-29 05:54:00,58.0,55.0,29.95,SSW,205,0.0,0.0,90,0.00,,,0.00,,2013-09-29 09:54:00,
2013-09-29 06:12:00,57.0,54.0,29.95,SSW,205,0.0,1.0,90,0.00,,,0.00,,2013-09-29 10:12:00,
2013-09-29 06:23:00,58.0,55.0,29.95,SSW,205,0.0,1.0,91,0.00,,,0.00,,2013-09-29 10:23:00,
2013-09-29 06:43:00,59.0,56.0,29.95,SSW,205,0.0,2.0,91,0.00,,,0.00,,2013-09-29 10:43:00,
2013-09-29 06:53:00,60.0,57.0,29.95,SSW,203,0.0,2.0,89,0.00,,,0.00,,2013-09-29 10:53:00,
2013-09-29 07:12:00,60.0,56.0,29.95,SSW,203,1.0,4.0,88,0.00,,,0.00,,2013-09-29 11:12:00,
2013-09-29 07:22:00,61.0,57.0,29.96,SSW,205,1.0,5.0,87,0.00,,,0.00,,2013-09-29 11:22:00,
2013-09-29 07:52:00,62.0,57.0,29.96,SSW,196,1.0,4.0,85,0.00,,,0.00,,2013-09-29 11:52:00,
2013-09-29 08:12:00,62.0,57.0,29.97,SSW,198,2.0,5.0,85,0.00,,,0.00,,2013-09-29 12:12:00,
2013-09-29 08:21:00,62.0,57.0,29.96,SSW,208,0.0,5.0,85,0.00,,,0.00,,2013-09-29 12:21:00,
2013-09-29 08:52:00,61.0,58.0,29.97,SW,215,1.0,4.0,91,0.05,,,0.05,,2013-09-29 12:52:00,
2013-09-29 09:11:00,60.0,58.0,29.96,SW,215,0.0,3.0,92,0.06,,,0.06,,2013-09-29 13:11:00,
2013-09-29 09:22:00,60.0,58.0,29.96,SW,215,0.0,4.0,93,0.06,,,0.06,,2013-09-29 13:22:00,
2013-09-29 09:53:00,60.0,58.0,29.96,SSW,213,0.0,2.0,93,0.01,,,0.06,,2013-09-29 13:53:00,
2013-09-29 10:12:00,61.0,59.0,29.96,SSW,209,0.0,5.0,93,0.00,,,0.06,,2013-09-29 14:12:00,
2013-09-29 10:22:00,61.0,59.0,29.96,SSW,213,1.0,5.0,93,0.00,,,0.06,,2013-09-29 14:22:00,
2013-09-29 10:43:00,61.0,59.0,29.97,SSW,197,1.0,5.0,93,0.01,,,0.07,,2013-09-29 14:43:00,
2013-09-29 10:52:00,61.0,59.0,29.97,South,189,2.0,6.0,94,0.02,,,0.08,,2013-09-29 14:52:00,
2013-09-29 11:12:00,61.0,59.0,29.96,SSW,205,3.0,8.0,94,0.04,,,0.10,,2013-09-29 15:12:00,
2013-09-29 11:22:00,61.0,60.0,29.97,SW,221,4.0,8.0,95,0.04,,,0.10,,2013-09-29 15:22:00,
2013-09-29 11:45:00,61.0,59.0,29.97,SSW,207,4.0,7.0,94,0.03,,,0.10,,2013-09-29 15:45:00,
2013-09-29 11:55:00,61.0,60.0,29.97,SSW,202,3.0,7.0,95,0.01,,,0.10,,2013-09-29 15:55:00,
2013-09-29 12:14:00,62.0,61.0,29.97,South,188,3.0,7.0,95,0.02,,,0.12,,2013-09-29 16:14:00,
2013-09-29 12:24:00,61.0,60.0,29.97,SW,217,3.0,7.0,95,0.02,,,0.12,,2013-09-29 16:24:00,
2013-09-29 12:44:00,61.0,60.0,29.97,SW,227,2.0,6.0,95,0.02,,,0.12,,2013-09-29 16:44:00,
2013-09-29 12:54:00,61.0,60.0,29.96,SW,223,0.0,6.0,95,0.02,,,0.12,,2013-09-29 16:54:00,
2013-09-29 13:13:00,62.0,61.0,29.97,SSW,213,1.0,5.0,95,0.00,,,0.12,,2013-09-29 17:13:00,
2013-09-29 13:24:00,62.0,61.0,29.97,SW,228,0.0,4.0,95,0.00,,,0.12,,2013-09-29 17:24:00,
2013-09-29 13:43:00,62.0,61.0,29.96,SSW,201,1.0,6.0,95,0.00,,,0.12,,2013-09-29 17:43:00,
2013-09-29 13:52:00,63.0,62.0,29.96,SW,217,0.0,5.0,96,0.00,,,0.12,,2013-09-29 17:52:00,
2013-09-29 14:13:00,62.0,61.0,29.96,SW,229,2.0,5.0,95,0.00,,,0.12,,2013-09-29 18:13:00,
2013-09-29 14:22:00,62.0,61.0,29.95,SSW,211,0.0,4.0,95,0.00,,,0.12,,2013-09-29 18:22:00,
2013-09-29 14:42:00,63.0,62.0,29.95,SW,228,0.0,6.0,95,0.00,,,0.12,,2013-09-29 18:42:00,
2013-09-29 14:52:00,63.0,62.0,29.94,WSW,253,1.0,4.0,95,0.00,,,0.12,,2013-09-29 18:52:00,
2013-09-29 15:11:00,63.0,62.0,29.94,SSW,212,1.0,4.0,95,0.00,,,0.12,,2013-09-29 19:11:00,
2013-09-29 15:22:00,63.0,62.0,29.94,SW,227,0.0,3.0,95,0.01,,,0.13,,2013-09-29 19:22:00,
2013-09-29 15:42:00,62.0,61.0,29.94,WSW,237,1.0,4.0,95,0.02,,,0.14,,2013-09-29 19:42:00,
2013-09-29 15:52:00,63.0,62.0,29.94,SW,229,0.0,3.0,96,0.02,,,0.14,,2013-09-29 19:52:00,
2013-09-29 16:12:00,62.0,61.0,29.94,NW,304,4.0,7.0,95,0.03,,,0.15,,2013-09-29 20:12:00,
2013-09-29 16:22:00,61.0,60.0,29.94,NW,314,5.0,9.0,95,0.03,,,0.16,,2013-09-29 20:22:00,
2013-09-29 16:43:00,61.0,60.0,29.94,NNW,340,4.0,6.0,96,0.02,,,0.16,,2013-09-29 20:43:00,
2013-09-29 16:52:00,60.0,59.0,29.94,NNW,342,3.0,8.0,96,0.02,,,0.16,,2013-09-29 20:52:00,
2013-09-29 17:12:00,60.0,59.0,29.95,NNW,329,5.0,8.0,96,0.01,,,0.16,,2013-09-29 21:12:00,
2013-09-29 17:22:00,60.0,59.0,29.95,NNW,336,5.0,10.0,96,0.00,,,0.16,,2013-09-29 21:22:00,
2013-09-29 17:44:00,60.0,59.0,29.95,NNW,338,3.0,7.0,95,0.00,,,0.16,,2013-09-29 21:44:00,
2013-09-29 17:55:00,60.0,59.0,29.95,NNW,330,2.0,5.0,95,0.00,,,0.16,,2013-09-29 21:55:00,
2013-09-29 18:14:00,60.0,59.0,29.95,NNW,336,1.0,3.0,95,0.00,,,0.16,,2013-09-29 22:14:00,
2013-09-29 18:24:00,60.0,59.0,29.95,NNW,336,0.0,3.0,95,0.00,,,0.16,,2013-09-29 22:24:00,
2013-09-29 18:53:00,60.0,59.0,29.96,NE,45,0.0,4.0,95,0.00,,,0.16,,2013-09-29 22:53:00,
2013-09-29 19:12:00,60.0,59.0,29.96,NE,45,0.0,1.0,95,0.00,,,0.16,,2013-09-29 23:12:00,
2013-09-29 19:23:00,60.0,59.0,29.96,NE,46,0.0,3.0,95,0.00,,,0.16,,2013-09-29 23:23:00,
2013-09-29 19:43:00,60.0,59.0,29.97,NE,46,0.0,1.0,95,0.00,,,0.16,,2013-09-29 23:43:00,
2013-09-29 19:53:00,60.0,59.0,29.96,NE,46,0.0,3.0,95,0.00,,,0.16,,2013-09-29 23:53:00,
2013-09-29 20:11:00,59.0,58.0,29.96,NE,46,0.0,0.0,95,0.00,,,0.16,,2013-09-30 00:11:00,
2013-09-29 20:22:00,59.0,58.0,29.96,NE,46,0.0,0.0,95,0.00,,,0.16,,2013-09-30 00:22:00,
2013-09-29 20:42:00,59.0,58.0,29.97,NE,46,0.0,1.0,95,0.00,,,0.16,,2013-09-30 00:42:00,
2013-09-29 20:52:00,59.0,58.0,29.97,NE,46,0.0,0.0,95,0.00,,,0.16,,2013-09-30 00:52:00,
2013-09-29 21:12:00,59.0,58.0,29.97,NE,46,0.0,0.0,95,0.00,,,0.16,,2013-09-30 01:12:00,
2013-09-29 21:22:00,59.0,58.0,29.97,NE,46,0.0,0.0,95,0.00,,,0.16,,2013-09-30 01:22:00,
2013-09-29 21:42:00,59.0,58.0,29.97,NE,46,0.0,0.0,95,0.00,,,0.16,,2013-09-30 01:42:00,
2013-09-29 21:52:00,58.0,57.0,29.97,NE,46,0.0,1.0,96,0.00,,,0.16,,2013-09-30 01:52:00,
2013-09-29 22:12:00,58.0,57.0,29.97,NE,46,0.0,1.0,96,0.00,,,0.16,,2013-09-30 02:12:00,
2013-09-29 22:22:00,58.0,57.0,29.97,NE,46,0.0,0.0,96,0.01,,,0.17,,2013-09-30 02:22:00,
2013-09-29 22:42:00,57.0,56.0,29.96,NE,46,0.0,0.0,96,0.01,,,0.17,,2013-09-30 02:42:00,
2013-09-29 22:52:00,56.0,55.0,29.96,NE,46,0.0,0.0,96,0.01,,,0.17,,2013-09-30 02:52:00,
2013-09-29 23:12:00,56.0,55.0,29.96,NE,46,0.0,0.0,96,0.01,,,0.17,,2013-09-30 03:12:00,
2013-09-29 23:22:00,55.0,54.0,29.97,NE,46,0.0,1.0,95,0.00,,,0.17,,2013-09-30 03:22:00,
2013-09-29 23:45:00,53.0,52.0,29.97,NE,46,0.0,1.0,95,0.00,,,0.17,,2013-09-30 03:45:00,
2013-09-29 23:55:00,53.0,52.0,29.97,NE,46,0.0,0.0,97,0.00,,,0.17,,2013-09-30 03:55:00,